カタログに戻る

STARLINK-11301

運用中通信VLEO
NORAD 61885·PAYLOAD·🇺🇸 United States

打ち上げ Nov 9, 2024 から Vandenberg Space Force Base

Loading…

次のパス (今後24時間)

TLE

最新Source: CelesTrak SupGP

元期: Sep 14, 2026, 21:25 UTC

1 61885C 24204M   26257.89284722 -.00058556  00000+0 -48227-3 0  2577
2 61885  53.1568 143.3314 0001131  95.8703 285.1521 15.69742295    10

AllMySatでSTARLINK-11301をリアルタイム追跡

Download on the App Store